| time (UTC) | temp C | wind direction | speed KPH | gust KPH | rain 1hr cm | rain 24hr cm | rain mn cm | humidity % | barometer mb |
| 20260510120034 | 12 | 144 | 0.0 | 0.0 | 0.00 | 0.00 | 0.00 | 94 | 1013.3 |
| 20260510114530 | 11 | 335 | 0.0 | 4.8 | 0.00 | 0.00 | 0.00 | 94 | 1013.0 |
| 20260510113027 | 11 | 340 | 3.2 | 4.8 | 0.00 | 0.00 | 0.00 | 94 | 1012.8 |
| 20260510111525 | 11 | 329 | 3.2 | 8.0 | 0.00 | 0.00 | 0.00 | 94 | 1012.7 |
| 20260510110035 | 10 | 329 | 1.6 | 4.8 | 0.00 | 0.00 | 0.00 | 93 | 1012.4 |
| 20260510104521 | 10 | 338 | 0.0 | 4.8 | 0.00 | 0.00 | 0.00 | 93 | 1012.1 |
| 20260510103019 | 10 | 346 | 1.6 | 4.8 | 0.00 | 0.00 | 0.00 | 93 | 1012.1 |
| 20260510101525 | 10 | 221 | 0.0 | 0.0 | 0.00 | 0.00 | 0.00 | 93 | 1011.8 |
| 20260510100014 | 10 | 221 | 0.0 | 3.2 | 0.00 | 0.00 | 0.00 | 93 | 1011.7 |
| 20260510094512 | 10 | 11 | 0.0 | 0.0 | 0.00 | 0.00 | 0.00 | 93 | 1011.5 |
| 20260510093009 | 10 | 11 | 0.0 | 4.8 | 0.00 | 0.00 | 0.00 | 93 | 1011.4 |
| 20260510091508 | 10 | 355 | 1.6 | 6.4 | 0.00 | 0.00 | 0.00 | 93 | 1011.7 |
| 20260510090006 | 11 | 289 | 0.0 | 6.4 | 0.00 | 0.00 | 0.00 | 93 | 1011.4 |
| 20260510084506 | 11 | 337 | 3.2 | 14.5 | 0.00 | 0.00 | 0.00 | 93 | 1011.4 |
| 20260510083003 | 10 | 338 | 6.4 | 16.1 | 0.00 | 0.00 | 0.00 | 93 | 1011.4 |
| 20260510081502 | 10 | 336 | 3.2 | 6.4 | 0.00 | 0.00 | 0.00 | 92 | 1011.0 |
| 20260510080103 | 11 | 327 | 1.6 | 3.2 | 0.00 | 0.00 | 0.00 | 92 | 1010.8 |
| 20260510074558 | 11 | 327 | 1.6 | 3.2 | 0.00 | 0.00 | 0.00 | 92 | 1010.8 |
| 20260510073106 | 11 | 327 | 1.6 | 4.8 | 0.00 | 0.00 | 0.00 | 92 | 1010.6 |
| 20260510071556 | 11 | 325 | 0.0 | 3.2 | 0.00 | 0.00 | 0.00 | 92 | 1010.5 |
| 20260510070053 | 11 | 329 | 1.6 | 4.8 | 0.00 | 0.00 | 0.00 | 91 | 1010.3 |
| 20260510064554 | 11 | 42 | 0.0 | 0.0 | 0.00 | 0.00 | 0.00 | 91 | 1010.1 |
| 20260510063052 | 11 | 36 | 0.0 | 0.0 | 0.00 | 0.00 | 0.00 | 91 | 1010.1 |
| 20260510061548 | 11 | 34 | 0.0 | 3.2 | 0.00 | 0.00 | 0.00 | 91 | 1010.2 |
| 20260510060047 | 12 | 34 | 0.0 | 3.2 | 0.00 | 0.00 | 0.00 | 91 | 1010.2 |
| 20260510054647 | 12 | 46 | 1.6 | 4.8 | 0.00 | 0.00 | 0.00 | 91 | 1010.4 |
| 20260510053044 | 12 | 34 | 0.0 | 4.8 | 0.00 | 0.00 | 0.00 | 90 | 1010.4 |
| 20260510051542 | 12 | 53 | 0.0 | 3.2 | 0.00 | 0.00 | 0.00 | 90 | 1010.5 |
| 20260510050046 | 12 | 36 | 0.0 | 1.6 | 0.00 | 0.00 | 0.00 | 90 | 1010.5 |
| 20260510044542 | 12 | 36 | 0.0 | 0.0 | 0.00 | 0.00 | 0.00 | 89 | 1010.6 |
| 20260510043038 | 12 | 33 | 0.0 | 3.2 | 0.00 | 0.00 | 0.00 | 89 | 1010.7 |
| 20260510041537 | 12 | 50 | 0.0 | 3.2 | 0.00 | 0.00 | 0.00 | 89 | 1010.6 |
| 20260510040037 | 12 | 20 | 0.0 | 3.2 | 0.00 | 0.00 | 0.00 | 88 | 1010.6 |
| 20260510034534 | 13 | 44 | 0.0 | 3.2 | 0.00 | 0.00 | 0.00 | 88 | 1010.5 |
| 20260510033038 | 13 | 41 | 0.0 | 4.8 | 0.00 | 0.00 | 0.00 | 87 | 1010.5 |
| 20260510031532 | 13 | 14 | 0.0 | 3.2 | 0.00 | 0.00 | 0.00 | 86 | 1010.4 |
| 20260510030032 | 13 | 66 | 0.0 | 1.6 | 0.00 | 0.00 | 0.00 | 85 | 1010.3 |
| 20260510024532 | 13 | 67 | 0.0 | 0.0 | 0.00 | 0.00 | 0.00 | 85 | 1010.3 |
| 20260510023032 | 14 | 74 | 0.0 | 3.2 | 0.00 | 0.00 | 0.00 | 84 | 1010.2 |
| 20260510021531 | 14 | 86 | 0.0 | 3.2 | 0.00 | 0.00 | 0.00 | 84 | 1010.2 |
| 20260510020029 | 15 | 109 | 0.0 | 3.2 | 0.00 | 0.00 | 0.00 | 84 | 1010.3 |
| 20260510014529 | 15 | 107 | 0.0 | 4.8 | 0.00 | 0.00 | 0.00 | 83 | 1010.1 |
| 20260510013027 | 15 | 126 | 1.6 | 6.4 | 0.00 | 0.00 | 0.00 | 82 | 1010.0 |
| 20260510011528 | 16 | 80 | 0.0 | 4.8 | 0.00 | 0.00 | 0.00 | 80 | 1009.8 |
| 20260510010027 | 16 | 119 | 0.0 | 6.4 | 0.00 | 0.00 | 0.00 | 79 | 1009.7 |
| 20260510004526 | 16 | 107 | 1.6 | 6.4 | 0.00 | 0.00 | 0.00 | 78 | 1009.6 |
| 20260510003026 | 17 | 142 | 0.0 | 9.7 | 0.00 | 0.00 | 0.00 | 76 | 1009.4 |
| 20260510001525 | 17 | 99 | 0.0 | 4.8 | 0.00 | 0.00 | 0.00 | 74 | 1009.4 |
| 20260510000033 | 18 | 130 | 0.0 | 3.2 | 0.00 | 0.00 | 0.00 | 72 | 1009.3 |
| 20260509234537 | 18 | 108 | 0.0 | 4.8 | 0.00 | 0.00 | 0.00 | 71 | 1009.1 |
| 20260509233023 | 19 | 86 | 0.0 | 9.7 | 0.00 | 0.00 | 0.00 | 71 | 1009.0 |
| 20260509231522 | 20 | 38 | 0.0 | 4.8 | 0.00 | 0.00 | 0.00 | 65 | 1008.9 |
| 20260509230023 | 21 | 60 | 1.6 | 6.4 | 0.00 | 0.00 | 0.00 | 63 | 1008.7 |
| 20260509224533 | 21 | 94 | 1.6 | 9.7 | 0.00 | 0.00 | 0.00 | 62 | 1008.7 |
| 20260509223021 | 21 | 121 | 3.2 | 11.3 | 0.00 | 0.00 | 0.00 | 61 | 1008.8 |
| 20260509221522 | 21 | 132 | 3.2 | 9.7 | 0.00 | 0.00 | 0.00 | 63 | 1008.8 |
| 20260509220023 | 21 | 124 | 3.2 | 6.4 | 0.00 | 0.00 | 0.00 | 63 | 1008.9 |
| 20260509214520 | 20 | 141 | 0.0 | 6.4 | 0.00 | 0.00 | 0.00 | 65 | 1009.0 |
| 20260509213019 | 21 | 173 | 3.2 | 8.0 | 0.00 | 0.00 | 0.00 | 63 | 1009.0 |
| 20260509211518 | 21 | 175 | 3.2 | 9.7 | 0.00 | 0.00 | 0.00 | 60 | 1009.0 |
| 20260509210015 | 21 | 136 | 3.2 | 9.7 | 0.00 | 0.00 | 0.00 | 62 | 1008.7 |
| 20260509204513 | 21 | 5 | 1.6 | 11.3 | 0.00 | 0.00 | 0.00 | 63 | 1008.7 |
| 20260509203011 | 20 | 193 | 1.6 | 8.0 | 0.00 | 0.00 | 0.00 | 67 | 1008.8 |
| 20260509201509 | 20 | 124 | 3.2 | 11.3 | 0.00 | 0.00 | 0.00 | 66 | 1008.9 |
| 20260509200007 | 20 | 210 | 3.2 | 9.7 | 0.00 | 0.00 | 0.00 | 66 | 1009.2 |
| 20260509194505 | 20 | 135 | 1.6 | 9.7 | 0.00 | 0.00 | 0.00 | 69 | 1009.3 |
| 20260509193007 | 20 | 122 | 3.2 | 6.4 | 0.00 | 0.00 | 0.00 | 65 | 1009.5 |
| 20260509191503 | 20 | 344 | 0.0 | 4.8 | 0.00 | 0.00 | 0.00 | 70 | 1009.5 |
| 20260509190006 | 18 | 121 | 1.6 | 6.4 | 0.00 | 0.00 | 0.00 | 71 | 1009.7 |
| 20260509184602 | 18 | 84 | 3.2 | 8.0 | 0.00 | 0.00 | 0.00 | 75 | 1009.8 |
| 20260509183104 | 17 | 76 | 0.0 | 4.8 | 0.00 | 0.00 | 0.00 | 82 | 1010.2 |
| 20260509181609 | 17 | 32 | 0.0 | 4.8 | 0.00 | 0.00 | 0.00 | 80 | 1010.6 |
| 20260509180113 | 18 | 18 | 1.6 | 4.8 | 0.00 | 0.00 | 0.00 | 76 | 1010.6 |
| 20260509174554 | 18 | 68 | 0.0 | 0.0 | 0.00 | 0.00 | 0.00 | 73 | 1010.6 |
| 20260509173107 | 19 | 68 | 0.0 | 3.2 | 0.00 | 0.00 | 0.00 | 68 | 1010.6 |
| 20260509171553 | 20 | 173 | 0.0 | 3.2 | 0.00 | 0.00 | 0.00 | 63 | 1010.7 |
| 20260509170054 | 20 | 306 | 0.0 | 6.4 | 0.00 | 0.00 | 0.00 | 61 | 1010.6 |
| 20260509164550 | 20 | 248 | 3.2 | 11.3 | 0.00 | 0.00 | 0.00 | 60 | 1010.8 |
| 20260509163046 | 20 | 231 | 4.8 | 11.3 | 0.00 | 0.00 | 0.00 | 62 | 1010.7 |
| 20260509161557 | 19 | 304 | 1.6 | 9.7 | 0.00 | 0.00 | 0.00 | 62 | 1011.0 |
| 20260509160043 | 19 | 180 | 4.8 | 16.1 | 0.00 | 0.00 | 0.00 | 63 | 1011.0 |
| 20260509154541 | 18 | 266 | 4.8 | 12.9 | 0.00 | 0.00 | 0.00 | 62 | 1010.9 |
| 20260509153036 | 18 | 205 | 4.8 | 12.9 | 0.00 | 0.00 | 0.00 | 63 | 1011.2 |
| 20260509151532 | 17 | 242 | 3.2 | 8.0 | 0.00 | 0.00 | 0.00 | 65 | 1011.5 |
| 20260509150030 | 17 | 201 | 3.2 | 9.7 | 0.00 | 0.00 | 0.00 | 65 | 1011.8 |
| 20260509144532 | 17 | 260 | 4.8 | 11.3 | 0.00 | 0.00 | 0.00 | 65 | 1011.9 |
| 20260509143029 | 17 | 236 | 4.8 | 12.9 | 0.00 | 0.00 | 0.00 | 65 | 1011.8 |
| 20260509141538 | 17 | 234 | 3.2 | 12.9 | 0.00 | 0.00 | 0.00 | 66 | 1011.8 |
| 20260509140025 | 16 | 237 | 1.6 | 11.3 | 0.00 | 0.00 | 0.00 | 69 | 1011.8 |
| 20260509134623 | 16 | 173 | 3.2 | 16.1 | 0.00 | 0.00 | 0.00 | 67 | 1011.9 |
| 20260509133021 | 16 | 237 | 4.8 | 16.1 | 0.00 | 0.00 | 0.00 | 66 | 1011.8 |
| 20260509131526 | 16 | 196 | 6.4 | 16.1 | 0.00 | 0.00 | 0.00 | 67 | 1011.7 |
| 20260509130023 | 16 | 291 | 4.8 | 14.5 | 0.00 | 0.00 | 0.00 | 70 | 1011.8 |
| 20260509124516 | 15 | 210 | 3.2 | 12.9 | 0.00 | 0.00 | 0.00 | 72 | 1011.8 |
| 20260509123014 | 15 | 250 | 8.0 | 16.1 | 0.00 | 0.00 | 0.00 | 72 | 1011.7 |
| 20260509121507 | 15 | 242 | 3.2 | 12.9 | 0.00 | 0.00 | 0.00 | 74 | 1011.7 |